"startDT [UTC]","vpos","CH4 [ppm]","stdev(CH4) [ppm]","CO2 [ppm]","stdev(CO2) [ppm]","H2O [ppm]","stdev(H2O)","p_LGR [torr]","T_LGR [C]","mt1_LGR [us]","mt2_LGR [us]","T_ECpre [C]","T_EC1 [C]","T_EC2 [C]","p_inlet [hPa]","p_in [hPa]","p_out [hPa]","T_inlet [C]","RH_inlet [%]","dwpt_inlet [C]","T_vent [C]","RH_vent [%]","dwpt_vent [C]","flow_vent [l min-1]","flow_inlet [l min-1]","dwpt_sample [C]","T_room [C]"
2012-03-05 00:00:00,0.0,1.9009,0.0010,402.12,0.28,-1.0,0.0,138.23,23.62,24.57,36.24,0.04,-272.73,-272.73,-46,549,-934,18.5,0.9,-40.3,18.6,0.9,-39.6,5.73,2.44,-36.4,23.0
2012-03-05 00:01:00,0.0,1.8996,0.0010,402.04,0.27,-1.0,0.0,138.23,23.62,24.57,36.24,0.04,-272.73,-272.73,-46,549,-934,18.5,0.8,-40.4,18.6,0.9,-39.7,5.73,2.45,-36.4,23.0
2012-03-05 00:02:00,0.0,1.8992,0.0008,402.02,0.34,-1.0,0.0,138.23,23.62,24.58,36.24,0.04,-272.73,-272.73,-46,549,-934,18.5,0.8,-40.4,18.6,0.9,-39.8,5.73,2.44,-36.4,23.0
2012-03-05 00:03:00,0.0,1.8993,0.0011,402.11,0.30,-1.0,0.0,138.23,23.62,24.58,36.24,0.04,-272.73,-272.73,-46,549,-934,18.5,0.8,-40.3,18.6,0.9,-39.7,5.73,2.45,-36.5,23.0
2012-03-05 00:04:00,0.0,1.8999,0.0009,402.13,0.28,-1.0,0.0,138.23,23.62,24.57,36.24,0.04,-272.72,-272.73,-47,549,-933,18.5,0.8,-40.3,18.6,0.9,-40.0,5.73,2.44,-36.4,23.0
2012-03-05 00:05:00,0.0,1.9002,0.0008,402.09,0.26,-1.0,0.0,138.23,23.62,24.57,36.24,0.04,-272.73,-272.73,-46,549,-934,18.5,0.8,-40.5,18.6,0.9,-39.9,5.73,2.45,-36.4,23.0
2012-03-05 00:06:00,0.0,1.8997,0.0009,401.98,0.29,-1.0,0.0,138.23,23.62,24.57,36.24,0.04,-272.73,-272.73,-47,549,-934,18.5,0.8,-40.7,18.6,0.9,-40.0,5.73,2.43,-36.4,23.0
2012-03-05 00:07:00,0.0,1.8998,0.0007,402.05,0.28,-1.0,0.0,138.23,23.62,24.57,36.24,0.04,-272.73,-272.73,-46,549,-934,18.5,0.8,-40.6,18.6,0.9,-40.0,5.73,2.45,-36.4,23.0
2012-03-05 00:08:00,0.0,1.8998,0.0008,402.11,0.23,-1.0,0.0,138.23,23.61,24.57,36.23,0.04,-272.73,-272.73,-47,549,-934,18.5,0.8,-40.6,18.6,0.9,-39.9,5.73,2.44,-36.4,23.0
2012-03-05 00:09:00,0.0,1.8993,0.0008,402.03,0.26,-1.0,0.0,138.23,23.61,24.58,36.24,0.04,-272.73,-272.73,-46,549,-934,18.5,0.8,-40.6,18.6,0.9,-40.1,5.73,2.45,-36.4,23.1
2012-03-05 00:10:00,0.0,1.9000,0.0008,402.01,0.26,-1.0,0.0,138.23,23.61,24.58,36.24,0.04,-272.73,-272.73,-47,549,-934,18.5,0.8,-40.7,18.6,0.9,-40.0,5.73,2.44,-36.4,23.1
2012-03-05 00:11:00,0.0,1.9000,0.0010,402.01,0.33,-1.0,0.0,138.23,23.61,24.58,36.24,0.04,-272.73,-272.73,-47,549,-934,18.5,0.8,-40.6,18.6,0.9,-39.9,5.73,2.45,-36.4,23.1
2012-03-05 00:12:00,0.0,1.9005,0.0010,402.01,0.27,-1.0,0.0,138.23,23.61,24.57,36.24,0.04,-272.73,-272.73,-46,549,-934,18.5,0.8,-40.6,18.6,0.9,-40.0,5.73,2.44,-36.4,23.1
2012-03-05 00:13:00,0.0,1.9008,0.0008,402.12,0.27,-1.0,0.0,138.23,23.61,24.58,36.24,0.04,-272.73,-272.73,-47,549,-934,18.5,0.8,-40.6,18.6,0.9,-40.0,5.73,2.44,-36.4,23.1
2012-03-05 00:14:00,0.0,1.9009,0.0007,402.06,0.27,-1.0,0.0,138.23,23.62,24.57,36.25,0.04,-272.73,-272.73,-46,549,-934,18.5,0.8,-40.7,18.6,0.9,-40.1,5.73,2.45,-36.4,23.1
2012-03-05 00:15:00,0.0,1.9009,0.0006,402.18,0.27,-1.0,0.0,138.23,23.62,24.57,36.23,0.04,-272.73,-272.72,-47,549,-934,18.5,0.8,-40.9,18.6,0.8,-40.3,5.73,2.43,-36.4,23.1
2012-03-05 00:16:00,0.0,1.9008,0.0009,402.12,0.23,-1.0,0.0,138.23,23.62,24.57,36.24,0.04,-272.73,-272.73,-46,549,-934,18.5,0.8,-40.8,18.6,0.8,-40.3,5.73,2.46,-36.4,23.0
2012-03-05 00:17:00,0.0,1.9011,0.0008,402.16,0.26,-1.0,0.0,138.23,23.62,24.58,36.24,0.04,-272.73,-272.73,-47,549,-934,18.5,0.8,-40.8,18.6,0.8,-40.3,5.73,2.42,-36.4,23.1
2012-03-05 00:18:00,0.0,1.9013,0.0009,402.10,0.26,-1.0,0.0,138.23,23.62,24.58,36.24,0.04,-272.73,-272.73,-46,549,-934,18.5,0.8,-40.9,18.6,0.8,-40.2,5.73,2.47,-36.4,23.1
2012-03-05 00:19:00,0.0,1.9006,0.0009,402.16,0.22,-1.0,0.0,138.23,23.62,24.58,36.24,0.04,-272.73,-272.73,-47,549,-934,18.5,0.8,-40.7,18.6,0.8,-40.3,5.73,2.42,-36.4,23.1
2012-03-05 00:20:00,0.0,1.9008,0.0008,402.09,0.27,-1.0,0.0,138.23,23.61,24.58,36.24,0.04,-272.73,-272.73,-47,549,-934,18.5,0.8,-40.6,18.6,0.8,-40.3,5.73,2.47,-36.4,23.1
2012-03-05 00:21:00,0.0,1.9008,0.0009,402.16,0.25,-1.0,0.0,138.23,23.61,24.57,36.23,0.04,-272.73,-272.73,-47,549,-934,18.5,0.8,-40.6,18.6,0.8,-40.2,5.73,2.41,-36.4,23.1
2012-03-05 00:22:00,0.0,1.9010,0.0007,402.14,0.26,-1.0,0.0,138.23,23.61,24.57,36.24,0.04,-272.73,-272.73,-47,549,-934,18.5,0.8,-40.6,18.6,0.8,-40.3,5.73,2.48,-36.4,23.1
2012-03-05 00:23:00,0.0,1.9010,0.0009,402.13,0.31,-1.0,0.0,138.23,23.61,24.57,36.24,0.04,-272.73,-272.73,-46,549,-934,18.5,0.8,-40.6,18.6,0.9,-40.1,5.73,2.40,-36.3,23.1
2012-03-05 00:24:00,0.0,1.9008,0.0009,402.08,0.28,-1.0,0.0,138.23,23.61,24.57,36.25,0.04,-272.73,-272.73,-47,549,-934,18.5,0.8,-40.6,18.6,0.9,-40.0,5.73,2.49,-36.4,23.1
2012-03-05 00:25:00,0.0,1.9014,0.0009,402.21,0.25,-1.0,0.0,138.23,23.61,24.58,36.24,0.04,-272.73,-272.73,-46,549,-934,18.5,0.8,-40.6,18.6,0.9,-39.9,5.73,2.39,-36.3,23.1
2012-03-05 00:26:00,0.0,1.9015,0.0008,402.30,0.27,-1.0,0.0,138.23,23.62,24.57,36.23,0.04,-272.73,-272.73,-47,549,-934,18.5,0.8,-40.6,18.6,0.9,-40.0,5.73,2.49,-36.3,23.1
2012-03-05 00:27:00,0.0,1.9015,0.0009,402.13,0.26,-1.0,0.0,138.23,23.62,24.57,36.24,0.04,-272.73,-272.73,-46,549,-934,18.5,0.8,-40.6,18.6,0.9,-40.0,5.73,2.39,-36.3,23.1
2012-03-05 00:28:00,0.0,1.9012,0.0008,402.21,0.31,-1.0,0.0,138.23,23.62,24.58,36.23,0.04,-272.73,-272.73,-47,549,-934,18.5,0.8,-40.6,18.6,0.9,-40.0,5.73,2.49,-36.3,23.1
2012-03-05 00:29:00,0.0,1.9008,0.0009,402.20,0.30,-1.0,0.0,138.23,23.61,24.58,36.23,0.04,-272.73,-272.73,-47,549,-934,18.5,0.8,-40.6,18.6,0.9,-40.0,5.73,2.39,-36.3,23.1
2012-03-05 00:30:00,0.0,1.9011,0.0009,402.12,0.28,-1.0,0.0,138.23,23.61,24.57,36.24,0.04,-272.73,-272.73,-47,549,-934,18.5,0.8,-40.6,18.6,0.9,-39.9,5.73,2.51,-36.3,23.0
2012-03-05 00:31:00,0.0,1.9009,0.0010,402.22,0.24,-1.0,0.0,138.23,23.61,24.57,36.23,0.04,-272.73,-272.73,-47,549,-934,18.5,0.8,-40.6,18.6,0.9,-40.0,5.73,2.38,-36.3,23.1
2012-03-05 00:32:00,0.0,1.9009,0.0010,402.05,0.27,-1.0,0.0,138.23,23.61,24.58,36.24,0.04,-272.73,-272.73,-47,549,-934,18.5,0.8,-40.6,18.6,0.9,-40.0,5.73,2.51,-36.3,23.1
2012-03-05 00:33:00,0.0,1.9007,0.0008,402.17,0.28,-1.0,0.0,138.23,23.61,24.57,36.24,0.04,-272.73,-272.73,-47,549,-934,18.5,0.8,-40.6,18.6,0.9,-40.0,5.73,2.37,-36.3,23.1
2012-03-05 00:34:00,0.0,1.9006,0.0009,402.20,0.32,-1.0,0.0,138.23,23.61,24.58,36.24,0.04,-272.72,-272.73,-47,549,-934,18.5,0.8,-40.5,18.6,0.9,-39.9,5.73,2.52,-36.3,23.1
2012-03-05 00:35:00,0.0,1.9009,0.0007,402.18,0.27,-1.0,0.0,138.23,23.61,24.57,36.24,0.04,-272.73,-272.73,-47,549,-934,18.5,0.9,-40.2,18.7,0.9,-39.6,5.73,2.37,-36.3,23.1
2012-03-05 00:36:00,0.0,1.9006,0.0009,402.12,0.25,-1.0,0.0,138.23,23.61,24.57,36.24,0.04,-272.73,-272.73,-46,549,-934,18.5,0.8,-40.3,18.7,0.9,-39.6,5.73,2.52,-36.3,23.1
2012-03-05 00:37:00,0.0,1.9012,0.0008,402.09,0.27,-1.0,0.0,138.23,23.61,24.57,36.24,0.04,-272.73,-272.73,-47,549,-934,18.6,0.8,-40.2,18.7,0.9,-39.7,5.73,2.36,-36.3,23.1
2012-03-05 00:38:00,0.0,1.9012,0.0009,402.09,0.22,-1.0,0.0,138.23,23.62,24.57,36.24,0.23,-271.20,-272.68,-47,550,-934,18.6,0.9,-40.0,18.6,0.9,-39.7,5.42,2.55,-39.7,23.1
2012-03-05 00:39:00,0.0,1.9007,0.0008,402.13,0.27,-1.0,0.0,138.23,23.62,24.57,36.24,0.04,-272.73,-272.73,-47,549,-934,18.6,0.9,-40.0,18.7,0.9,-39.3,5.73,2.37,-36.2,23.1
2012-03-05 00:40:00,0.0,1.9001,0.0007,402.15,0.26,-1.0,0.0,138.23,23.62,24.58,36.23,0.04,-272.73,-272.73,-47,550,-934,18.6,0.9,-40.0,18.7,0.9,-39.4,5.73,2.50,-36.3,23.1
2012-03-05 00:41:00,0.0,1.9002,0.0010,402.12,0.29,-1.0,0.0,138.23,23.62,24.57,36.24,0.04,-272.73,-272.73,-47,550,-934,18.6,0.9,-39.9,18.7,0.9,-39.4,5.73,2.39,-36.2,23.2
2012-03-05 00:42:00,0.0,1.8999,0.0009,402.08,0.27,-1.0,0.0,138.23,23.62,24.58,36.24,0.04,-272.73,-272.73,-47,550,-934,18.6,0.9,-39.2,18.7,1.0,-38.8,5.73,2.49,-36.2,23.2
2012-03-05 00:43:00,0.0,1.8998,0.0009,402.22,0.27,-1.0,0.0,138.23,23.62,24.57,36.24,0.04,-272.73,-272.73,-47,550,-934,18.6,0.9,-39.5,18.7,1.0,-39.0,5.73,2.39,-36.2,23.1
2012-03-05 00:44:00,0.0,1.8990,0.0009,402.04,0.21,-1.0,0.0,138.23,23.62,24.58,36.24,0.04,-272.73,-272.73,-47,550,-934,18.6,0.9,-39.9,18.7,0.9,-39.4,5.73,2.48,-36.2,23.1
2012-03-05 00:45:00,0.0,1.8992,0.0008,402.18,0.29,-1.0,0.0,138.23,23.62,24.57,36.23,0.04,-272.72,-272.73,-47,550,-934,18.6,0.9,-39.9,18.7,0.9,-39.4,5.73,2.42,-36.2,23.1
2012-03-05 00:46:00,0.0,1.8999,0.0008,402.07,0.29,-1.0,0.0,138.23,23.63,24.58,36.24,0.04,-272.73,-272.73,-47,550,-934,18.6,0.9,-39.7,18.7,0.9,-39.2,5.73,2.44,-36.2,23.1
2012-03-05 00:47:00,0.0,1.9001,0.0009,402.13,0.26,-1.0,0.0,138.23,23.63,24.57,36.24,0.04,-272.73,-272.73,-47,550,-934,18.6,0.9,-39.7,18.7,0.9,-39.1,5.73,2.45,-36.2,23.2
2012-03-05 00:48:00,0.0,1.9007,0.0009,402.07,0.26,-1.0,0.0,138.23,23.63,24.57,36.25,0.04,-272.73,-272.73,-47,550,-934,18.6,0.9,-40.0,18.7,0.9,-39.4,5.73,2.41,-36.2,23.1
2012-03-05 00:49:00,0.0,1.9007,0.0011,402.19,0.24,-1.0,0.0,138.23,23.63,24.58,36.23,0.04,-272.73,-272.73,-47,550,-934,18.6,0.9,-40.0,18.7,0.9,-39.3,5.73,2.47,-36.2,23.2
2012-03-05 00:50:00,0.0,1.8997,0.0010,402.05,0.28,-1.0,0.0,138.23,23.63,24.57,36.24,0.04,-272.73,-272.73,-47,550,-934,18.6,0.9,-39.8,18.7,0.9,-39.4,5.73,2.39,-36.2,23.2
2012-03-05 00:51:00,0.0,1.9000,0.0008,401.97,0.22,-1.0,0.0,138.23,23.63,24.57,36.24,0.04,-272.73,-272.73,-47,550,-934,18.6,0.9,-39.7,18.7,1.0,-39.1,5.73,2.50,-36.2,23.3
2012-03-05 00:52:00,0.0,1.9003,0.0008,402.10,0.31,-1.0,0.0,138.23,23.64,24.57,36.24,0.04,-272.73,-272.73,-47,550,-934,18.6,0.9,-39.6,18.7,1.0,-39.1,5.73,2.37,-36.2,23.2
2012-03-05 00:53:00,0.0,1.9000,0.0007,402.07,0.28,-1.0,0.0,138.23,23.64,24.58,36.24,0.04,-272.73,-272.73,-47,550,-934,18.6,0.9,-39.7,18.7,1.0,-39.1,5.73,2.52,-36.2,23.3
2012-03-05 00:54:00,0.0,1.9008,0.0008,402.11,0.24,-1.0,0.0,138.23,23.64,24.57,36.24,0.04,-272.73,-272.73,-47,550,-934,18.6,0.9,-39.7,18.7,0.9,-39.1,5.73,2.36,-36.2,23.3
2012-03-05 00:55:00,0.0,1.9005,0.0010,402.13,0.22,-1.0,0.0,138.23,23.64,24.57,36.24,0.04,-272.73,-272.73,-47,550,-934,18.6,0.9,-39.6,18.7,1.0,-39.0,5.73,2.52,-36.2,23.3
2012-03-05 00:56:00,0.0,1.9000,0.0009,402.14,0.22,-1.0,0.0,138.23,23.65,24.57,36.24,0.04,-272.73,-272.73,-47,550,-934,18.6,0.9,-39.6,18.7,1.0,-39.0,5.73,2.37,-36.2,23.2
2012-03-05 00:57:00,0.0,1.8997,0.0009,402.01,0.25,-1.0,0.0,138.23,23.64,24.57,36.24,0.04,-272.72,-272.73,-47,550,-934,18.6,0.9,-39.6,18.7,0.9,-39.1,5.73,2.51,-36.2,23.2
2012-03-05 00:58:00,0.0,1.8992,0.0008,402.01,0.27,-1.0,0.0,138.23,23.64,24.58,36.24,0.04,-272.73,-272.73,-47,550,-934,18.6,0.9,-39.4,18.7,1.0,-38.8,5.73,2.39,-36.2,23.3
2012-03-05 00:59:00,0.0,1.8996,0.0008,402.02,0.30,-1.0,0.0,138.23,23.64,24.57,36.25,0.04,-272.73,-272.73,-47,550,-934,18.6,0.9,-39.3,18.7,1.0,-38.8,5.73,2.48,-36.2,23.2
2012-03-05 01:00:00,0.0,1.8993,0.0010,402.00,0.29,-1.0,0.0,138.23,23.64,24.58,36.24,0.04,-272.73,-272.73,-47,550,-934,18.6,0.9,-39.4,18.7,1.0,-38.8,5.73,2.42,-36.2,23.3
2012-03-05 01:01:00,0.0,1.8998,0.0008,401.98,0.25,-1.0,0.0,138.23,23.64,24.57,36.25,0.04,-272.73,-272.73,-47,550,-934,18.6,0.9,-39.3,18.7,1.0,-38.8,5.73,2.44,-36.2,23.3
2012-03-05 01:02:00,0.0,1.8996,0.0009,402.03,0.28,-1.0,0.0,138.23,23.64,24.57,36.24,0.04,-272.73,-272.73,-47,550,-934,18.6,0.9,-39.4,18.7,1.0,-39.0,5.73,2.44,-36.2,23.2
2012-03-05 01:03:00,0.0,1.9001,0.0010,402.04,0.25,-1.0,0.0,138.23,23.65,24.57,36.24,0.04,-272.73,-272.73,-47,550,-934,18.6,0.9,-39.7,18.7,0.9,-39.0,5.73,2.42,-36.1,23.2
2012-03-05 01:04:00,0.0,1.9004,0.0009,401.97,0.25,-1.0,0.0,138.23,23.65,24.58,36.24,0.04,-272.73,-272.73,-47,550,-934,18.7,0.9,-39.5,18.7,1.0,-39.0,5.73,2.48,-36.1,23.3
2012-03-05 01:05:00,0.0,1.9006,0.0009,401.99,0.26,-1.0,0.0,138.23,23.66,24.58,36.24,0.04,-272.73,-272.73,-47,550,-934,18.7,0.9,-39.5,18.7,0.9,-39.1,5.73,2.39,-36.1,23.3
2012-03-05 01:06:00,0.0,1.9014,0.0011,401.93,0.27,-1.0,0.0,138.23,23.66,24.57,36.25,0.04,-272.73,-272.73,-47,550,-934,18.7,0.9,-39.6,18.7,0.9,-39.1,5.73,2.50,-36.1,23.3
2012-03-05 01:07:00,0.0,1.9014,0.0008,402.11,0.29,-1.0,0.0,138.23,23.67,24.57,36.24,0.04,-272.73,-272.73,-47,550,-934,18.7,0.9,-39.6,18.7,1.0,-39.0,5.73,2.36,-36.1,23.3
2012-03-05 01:08:00,0.0,1.9012,0.0009,402.13,0.26,-1.0,0.0,138.23,23.67,24.57,36.24,0.04,-272.72,-272.73,-47,550,-934,18.7,0.9,-39.6,18.7,0.9,-39.1,5.73,2.51,-36.1,23.3
2012-03-05 01:09:00,0.0,1.9010,0.0007,402.10,0.28,-1.0,0.0,138.23,23.67,24.57,36.24,0.04,-272.73,-272.73,-47,550,-934,18.7,0.9,-39.8,18.7,0.9,-39.3,5.73,2.37,-36.1,23.3
2012-03-05 01:10:00,0.0,1.9006,0.0010,402.10,0.25,-1.0,0.0,138.23,23.67,24.57,36.24,0.04,-272.73,-272.73,-47,550,-934,18.7,0.9,-39.9,18.7,0.9,-39.3,5.73,2.50,-36.1,23.3
2012-03-05 01:11:00,0.0,1.9003,0.0010,402.07,0.24,-1.0,0.0,138.23,23.67,24.58,36.24,0.04,-272.73,-272.73,-47,550,-934,18.7,0.9,-39.9,18.7,0.9,-39.3,5.73,2.39,-36.1,23.3
2012-03-05 01:12:00,0.0,1.9008,0.0008,402.10,0.28,-1.0,0.0,138.23,23.67,24.57,36.24,0.04,-272.73,-272.73,-47,550,-934,18.7,0.9,-39.9,18.8,0.9,-39.3,5.73,2.47,-36.1,23.3
2012-03-05 01:13:00,0.0,1.9004,0.0007,402.13,0.29,-1.0,0.0,138.23,23.67,24.57,36.24,0.04,-272.73,-272.73,-47,550,-934,18.7,0.9,-39.9,18.8,0.9,-39.3,5.73,2.43,-36.1,23.3
2012-03-05 01:14:00,0.0,1.9006,0.0010,402.13,0.24,-1.0,0.0,138.23,23.67,24.57,36.24,0.04,-272.73,-272.73,-47,550,-934,18.7,0.9,-39.9,18.8,0.9,-39.3,5.73,2.42,-36.1,23.3
2012-03-05 01:15:00,0.0,1.9000,0.0010,402.14,0.26,-1.0,0.0,138.23,23.67,24.58,36.23,0.04,-272.73,-272.73,-47,550,-934,18.7,0.9,-39.9,18.8,0.9,-39.3,5.73,2.47,-36.1,23.3
2012-03-05 01:16:00,0.0,1.9005,0.0008,402.00,0.22,-1.0,0.0,138.23,23.67,24.57,36.24,0.04,-272.73,-272.73,-47,550,-934,18.7,0.9,-39.9,18.8,0.9,-39.3,5.73,2.38,-36.1,23.3
2012-03-05 01:17:00,0.0,1.9003,0.0009,402.03,0.27,-1.0,0.0,138.22,23.67,24.57,36.24,0.04,-272.73,-272.73,-47,551,-934,18.7,0.9,-39.8,18.8,0.9,-39.2,5.73,2.50,-36.1,23.3
2012-03-05 01:18:00,0.0,1.9005,0.0008,402.05,0.28,-1.0,0.0,138.23,23.67,24.57,36.24,0.04,-272.73,-272.73,-47,550,-934,18.7,0.9,-39.6,18.8,0.9,-39.0,5.73,2.36,-36.1,23.4
2012-03-05 01:19:00,0.0,1.9006,0.0008,402.10,0.28,-1.0,0.0,138.23,23.67,24.57,36.23,0.04,-272.73,-272.73,-47,550,-934,18.7,0.9,-39.3,18.8,1.0,-38.9,5.73,2.51,-36.1,23.4
2012-03-05 01:20:00,0.0,1.9016,0.0011,401.95,0.26,-1.0,0.0,138.22,23.68,24.57,36.24,0.04,-272.73,-272.73,-47,551,-934,18.7,0.9,-39.3,18.8,1.0,-38.7,5.73,2.38,-36.1,23.4
2012-03-05 01:21:00,0.0,1.9022,0.0010,401.99,0.25,-1.0,0.0,138.23,23.68,24.57,36.24,0.04,-272.73,-272.73,-47,550,-934,18.7,1.0,-38.5,18.8,1.1,-38.1,5.73,2.48,-36.0,23.4
2012-03-05 01:22:00,0.0,1.9014,0.0009,402.05,0.25,-1.0,0.0,138.22,23.68,24.57,36.24,0.04,-272.73,-272.73,-47,551,-934,18.7,1.0,-38.6,18.8,1.1,-38.0,5.73,2.41,-36.0,23.4
2012-03-05 01:23:00,0.0,1.9020,0.0010,402.09,0.25,-1.0,0.0,138.22,23.69,24.57,36.23,0.04,-272.73,-272.73,-47,551,-934,18.7,1.0,-38.8,18.8,1.0,-38.2,5.73,2.43,-36.0,23.4
2012-03-05 01:24:00,0.0,1.9020,0.0010,402.00,0.24,-1.0,0.0,138.22,23.70,24.58,36.24,0.04,-272.73,-272.73,-47,551,-934,18.7,1.0,-38.7,18.8,1.0,-38.2,5.73,2.47,-36.0,23.4
2012-03-05 01:25:00,0.0,1.9024,0.0009,402.03,0.26,-1.0,0.0,138.23,23.70,24.58,36.24,0.04,-272.73,-272.73,-47,551,-934,18.7,1.0,-38.8,18.8,1.0,-38.2,5.73,2.38,-36.0,23.4
2012-03-05 01:26:00,0.0,1.9018,0.0010,402.16,0.25,-1.0,0.0,138.22,23.71,24.57,36.23,0.04,-272.73,-272.73,-47,551,-934,18.7,1.0,-38.7,18.8,1.0,-38.2,5.73,2.51,-36.0,23.4
2012-03-05 01:27:00,0.0,1.9017,0.0009,402.08,0.30,-1.0,0.0,138.22,23.71,24.57,36.23,0.04,-272.73,-272.73,-47,551,-934,18.7,1.0,-38.5,18.8,1.1,-38.0,5.73,2.37,-36.0,23.4
2012-03-05 01:28:00,0.0,1.9019,0.0010,402.17,0.25,-1.0,0.0,138.22,23.71,24.57,36.23,0.04,-272.73,-272.73,-47,551,-934,18.7,1.0,-38.5,18.8,1.1,-37.9,5.73,2.51,-36.0,23.5
2012-03-05 01:29:00,0.0,1.9023,0.0007,402.20,0.28,-1.0,0.0,138.22,23.71,24.57,36.24,0.04,-272.73,-272.73,-47,551,-934,18.7,1.0,-38.5,18.8,1.1,-37.9,5.73,2.37,-36.0,23.5
2012-03-05 01:30:00,0.0,1.9018,0.0010,402.12,0.29,-1.0,0.0,138.22,23.71,24.57,36.24,0.04,-272.73,-272.73,-47,551,-934,18.7,1.0,-38.5,18.8,1.1,-37.9,5.73,2.48,-36.0,23.5
2012-03-05 01:31:00,0.0,1.9012,0.0008,402.01,0.28,-1.0,0.0,138.22,23.72,24.58,36.24,0.04,-272.73,-272.73,-47,551,-934,18.8,1.0,-38.4,18.8,1.1,-37.9,5.73,2.42,-36.0,23.5
2012-03-05 01:32:00,0.0,1.9014,0.0009,402.15,0.30,-1.0,0.0,138.22,23.72,24.57,36.23,0.04,-272.73,-272.73,-47,551,-934,18.8,1.0,-38.3,18.9,1.1,-37.9,5.73,2.41,-36.0,23.5
2012-03-05 01:33:00,0.0,1.9015,0.0012,402.10,0.27,-1.0,0.0,138.22,23.72,24.58,36.24,0.04,-272.73,-272.73,-47,551,-934,18.8,1.0,-38.2,18.8,1.1,-37.7,5.73,2.49,-36.0,23.5
2012-03-05 01:34:00,0.0,1.9028,0.0009,401.99,0.25,-1.0,0.0,138.22,23.72,24.57,36.24,0.04,-272.73,-272.73,-47,551,-934,18.8,1.1,-37.9,18.9,1.1,-37.4,5.73,2.37,-35.9,23.5
2012-03-05 01:35:00,0.0,1.9025,0.0009,402.09,0.23,-1.0,0.0,138.22,23.73,24.58,36.24,0.04,-272.73,-272.73,-47,551,-934,18.8,1.1,-38.0,18.9,1.1,-37.4,5.73,2.51,-35.9,23.6
2012-03-05 01:36:00,0.0,1.9024,0.0009,402.15,0.28,-1.0,0.0,138.22,23.73,24.57,36.23,0.04,-272.73,-272.73,-47,551,-934,18.8,1.1,-37.9,18.9,1.1,-37.5,5.73,2.37,-35.9,23.5
2012-03-05 01:37:00,0.0,1.9021,0.0009,402.13,0.24,-1.0,0.0,138.22,23.74,24.57,36.24,0.04,-272.73,-272.73,-47,551,-934,18.8,1.1,-37.9,18.9,1.1,-37.4,5.73,2.46,-35.9,23.5
2012-03-05 01:38:00,0.0,1.9018,0.0009,402.17,0.24,-1.0,0.0,138.22,23.74,24.58,36.24,0.04,-272.72,-272.73,-47,551,-934,18.8,1.1,-37.5,18.9,1.2,-36.9,5.73,2.44,-35.9,23.5
2012-03-05 01:39:00,0.0,1.9018,0.0010,402.17,0.31,-1.0,0.0,138.22,23.74,24.58,36.23,0.04,-272.73,-272.73,-47,551,-934,18.8,1.1,-37.4,18.9,1.2,-36.9,5.73,2.40,-35.9,23.5
2012-03-05 01:40:00,0.0,1.9025,0.0010,402.14,0.24,-1.0,0.0,138.22,23.74,24.57,36.24,0.04,-272.73,-272.73,-47,551,-934,18.8,1.1,-37.7,18.9,1.1,-37.2,5.73,2.49,-35.9,23.6
2012-03-05 01:41:00,0.0,1.9033,0.0010,402.10,0.29,-1.0,0.0,138.22,23.75,24.58,36.24,0.04,-272.73,-272.73,-47,551,-934,18.8,1.1,-37.6,18.9,1.1,-37.1,5.73,2.37,-35.9,23.5
2012-03-05 01:42:00,0.0,1.9034,0.0009,402.09,0.25,-1.0,0.0,138.22,23.76,24.57,36.24,0.04,-272.73,-272.73,-47,551,-934,18.8,1.1,-37.8,18.9,1.2,-37.1,5.73,2.51,-35.9,23.6
2012-03-05 01:43:00,0.0,1.9040,0.0009,402.07,0.25,-1.0,0.0,138.22,23.76,24.57,36.24,0.04,-272.73,-272.73,-47,551,-934,18.8,1.1,-37.9,18.9,1.1,-37.3,5.73,2.36,-35.8,23.6
2012-03-05 01:44:00,0.0,1.9042,0.0010,402.12,0.25,-1.0,0.0,138.22,23.77,24.57,36.24,0.04,-272.73,-272.73,-47,551,-934,18.8,1.1,-37.9,18.9,1.1,-37.4,5.73,2.49,-35.8,23.6
2012-03-05 01:45:00,0.0,1.9040,0.0009,402.21,0.31,-1.0,0.0,138.22,23.78,24.58,36.24,0.04,-272.73,-272.73,-47,551,-934,18.8,1.1,-37.9,18.9,1.1,-37.3,5.73,2.40,-35.8,23.5
2012-03-05 01:46:00,0.0,1.9044,0.0010,402.41,0.29,-1.0,0.0,138.22,23.78,24.58,36.24,0.04,-272.72,-272.73,-47,551,-934,18.8,1.1,-37.9,18.9,1.1,-37.4,5.73,2.45,-35.8,23.6
2012-03-05 01:47:00,0.0,1.9065,0.0010,402.48,0.24,-1.0,0.0,138.22,23.78,24.58,36.24,0.04,-272.73,-272.73,-47,552,-934,18.9,1.1,-37.9,18.9,1.1,-37.4,5.73,2.44,-35.8,23.6
2012-03-05 01:48:00,0.0,1.9061,0.0010,402.58,0.28,-1.0,0.0,138.22,23.78,24.57,36.23,0.04,-272.73,-272.73,-47,551,-934,18.9,1.1,-37.9,18.9,1.1,-37.3,5.73,2.41,-35.8,23.6
2012-03-05 01:49:00,0.0,1.9048,0.0008,402.50,0.30,-1.0,0.0,138.22,23.79,24.58,36.24,0.04,-272.73,-272.73,-47,551,-934,18.9,1.1,-37.9,19.0,1.1,-37.4,5.73,2.47,-35.8,23.6
2012-03-05 01:50:00,0.0,1.9048,0.0010,402.09,0.22,-1.0,0.0,138.22,23.79,24.57,36.24,0.04,-272.73,-272.73,-47,552,-934,18.9,1.1,-37.9,18.9,1.1,-37.4,5.73,2.38,-35.8,23.6
2012-03-05 01:51:00,0.0,1.9052,0.0008,402.18,0.28,-1.0,0.0,138.22,23.80,24.57,36.24,0.04,-272.73,-272.73,-47,551,-934,18.9,1.1,-37.9,19.0,1.1,-37.4,5.73,2.51,-35.8,23.6
2012-03-05 01:52:00,0.0,1.9056,0.0008,402.06,0.26,-1.0,0.0,138.22,23.80,24.57,36.24,0.04,-272.73,-272.73,-47,552,-934,18.9,1.1,-37.9,19.0,1.1,-37.3,5.73,2.36,-35.8,23.7
2012-03-05 01:53:00,0.0,1.9048,0.0011,402.09,0.19,-1.0,0.0,138.22,23.81,24.57,36.24,0.04,-272.73,-272.73,-47,552,-934,18.9,1.1,-37.9,19.0,1.1,-37.4,5.73,2.51,-35.7,23.7
2012-03-05 01:54:00,0.0,1.9037,0.0008,402.09,0.30,-1.0,0.0,138.22,23.81,24.58,36.24,0.04,-272.73,-272.73,-47,552,-934,18.9,1.1,-38.0,19.0,1.1,-37.4,5.73,2.38,-35.8,23.7
2012-03-05 01:55:00,0.0,1.9031,0.0007,402.10,0.27,-1.0,0.0,138.22,23.81,24.57,36.24,0.04,-272.73,-272.73,-47,552,-934,18.9,1.0,-38.1,19.0,1.1,-37.5,5.73,2.48,-35.7,23.6
2012-03-05 01:56:00,0.0,1.9034,0.0009,402.12,0.27,-1.0,0.0,138.22,23.82,24.57,36.24,0.04,-272.73,-272.73,-47,552,-934,18.9,1.0,-38.2,19.0,1.1,-37.6,5.73,2.40,-35.7,23.7
2012-03-05 01:57:00,0.0,1.9032,0.0009,402.18,0.26,-1.0,0.0,138.22,23.82,24.57,36.23,0.04,-272.73,-272.73,-47,552,-934,18.9,1.0,-38.1,19.0,1.1,-37.6,5.73,2.45,-35.7,23.7
2012-03-05 01:58:00,0.0,1.9031,0.0010,402.08,0.26,-1.0,0.0,138.22,23.82,24.57,36.24,0.04,-272.72,-272.73,-47,552,-934,18.9,1.0,-38.2,19.0,1.1,-37.6,5.73,2.45,-35.7,23.7
2012-03-05 01:59:00,0.0,1.9027,0.0009,402.13,0.25,-1.0,0.0,138.22,23.82,24.58,36.23,0.04,-272.73,-272.73,-47,552,-934,18.9,1.0,-38.3,19.0,1.1,-37.8,5.73,2.40,-35.7,23.6
2012-03-05 02:00:00,0.0,1.9028,0.0008,402.05,0.22,-1.0,0.0,138.22,23.83,24.57,36.24,0.04,-272.73,-272.73,-47,552,-934,19.0,1.0,-38.3,19.0,1.1,-37.8,5.73,2.49,-35.7,23.7
2012-03-05 02:01:00,0.0,1.9024,0.0009,402.02,0.24,-1.0,0.0,138.22,23.83,24.58,36.24,0.04,-272.73,-272.73,-47,552,-934,19.0,1.0,-38.3,19.0,1.1,-37.8,5.73,2.37,-35.7,23.6
2012-03-05 02:02:00,0.0,1.9029,0.0008,402.10,0.26,-1.0,0.0,138.22,23.83,24.57,36.23,0.04,-272.73,-272.73,-47,552,-934,18.9,1.0,-38.3,19.0,1.1,-37.8,5.73,2.51,-35.7,23.6
2012-03-05 02:03:00,0.0,1.9027,0.0009,402.14,0.25,-1.0,0.0,138.22,23.83,24.57,36.23,0.04,-272.73,-272.73,-48,552,-934,19.0,1.0,-38.1,19.0,1.1,-37.6,5.73,2.36,-35.6,23.6
2012-03-05 02:04:00,0.0,1.9030,0.0009,402.08,0.27,-1.0,0.0,138.22,23.84,24.57,36.24,0.04,-272.73,-272.73,-47,552,-934,19.0,1.0,-38.1,19.0,1.1,-37.6,5.73,2.50,-35.6,23.7
2012-03-05 02:05:00,0.0,1.9029,0.0009,402.08,0.30,-1.0,0.0,138.22,23.84,24.57,36.23,0.04,-272.73,-272.73,-48,552,-934,19.0,1.1,-37.9,19.0,1.1,-37.5,5.73,2.40,-35.6,23.7
2012-03-05 02:06:00,0.0,1.9030,0.0011,402.04,0.26,-1.0,0.0,138.22,23.84,24.58,36.24,0.04,-272.73,-272.73,-47,552,-934,19.0,1.1,-37.8,19.0,1.1,-37.3,5.73,2.45,-35.6,23.7
2012-03-05 02:07:00,0.0,1.9033,0.0007,402.18,0.28,-1.0,0.0,138.22,23.84,24.57,36.23,0.04,-272.73,-272.73,-48,552,-934,19.0,1.1,-37.7,19.1,1.1,-37.1,5.73,2.44,-35.6,23.7
2012-03-05 02:08:00,0.0,1.9037,0.0011,402.06,0.24,-1.0,0.0,138.22,23.85,24.57,36.23,0.04,-272.73,-272.73,-47,552,-934,19.0,1.1,-37.6,19.1,1.1,-37.0,5.73,2.40,-35.6,23.7
2012-03-05 02:09:00,0.0,1.9045,0.0009,402.05,0.24,-1.0,0.0,138.22,23.85,24.57,36.23,0.04,-272.73,-272.73,-48,552,-934,19.0,1.1,-37.5,19.1,1.1,-37.0,5.73,2.49,-35.6,23.8
2012-03-05 02:10:00,0.0,1.9043,0.0009,401.96,0.23,-1.0,0.0,138.22,23.86,24.57,36.24,0.04,-272.73,-272.73,-47,552,-934,19.0,1.1,-37.3,19.1,1.2,-36.8,5.73,2.36,-35.5,23.8
2012-03-05 02:11:00,0.0,1.9040,0.0009,402.07,0.29,-1.0,0.0,138.22,23.87,24.57,36.23,0.04,-272.73,-272.73,-48,552,-934,19.0,1.1,-37.3,19.1,1.2,-36.8,5.73,2.50,-35.6,23.7
2012-03-05 02:12:00,0.0,1.9038,0.0009,402.10,0.25,-1.0,0.0,138.22,23.87,24.57,36.23,0.04,-272.72,-272.73,-47,552,-934,19.0,1.1,-37.2,19.1,1.2,-36.8,5.73,2.37,-35.5,23.7
2012-03-05 02:13:00,0.0,1.9030,0.0009,401.91,0.28,-1.0,0.0,138.22,23.88,24.58,36.24,0.04,-272.73,-272.73,-48,552,-934,19.0,1.1,-37.1,19.1,1.2,-36.6,5.73,2.49,-35.5,23.7
2012-03-05 02:14:00,0.0,1.9040,0.0008,402.00,0.31,-1.0,0.0,138.22,23.88,24.57,36.23,0.04,-272.73,-272.73,-47,553,-934,19.0,1.1,-37.1,19.1,1.2,-36.6,5.73,2.40,-35.5,23.7
2012-03-05 02:15:00,0.0,1.9042,0.0009,401.92,0.25,-1.0,0.0,138.22,23.89,24.57,36.24,0.04,-272.73,-272.73,-48,553,-934,19.0,1.1,-37.1,19.1,1.2,-36.4,5.73,2.44,-35.5,23.7
2012-03-05 02:16:00,0.0,1.9043,0.0008,402.03,0.26,-1.0,0.0,138.22,23.90,24.57,36.24,0.04,-272.73,-272.73,-47,552,-934,19.0,1.2,-36.8,19.1,1.2,-36.3,5.73,2.45,-35.5,23.8
2012-03-05 02:17:00,0.0,1.9037,0.0010,402.11,0.25,-1.0,0.0,138.22,23.90,24.58,36.24,0.04,-272.73,-272.73,-48,553,-934,19.1,1.2,-36.8,19.1,1.2,-36.4,5.73,2.39,-35.5,23.7
2012-03-05 02:18:00,0.0,1.9029,0.0009,402.03,0.28,-1.0,0.0,138.22,23.90,24.57,36.23,0.04,-272.73,-272.73,-47,553,-934,19.1,1.2,-36.7,19.1,1.2,-36.3,5.73,2.50,-35.5,23.7